Wetterdaten: Freitag, 04.02.2011
Datum Zeit Temp. A. Feuchte A. Luftdruck Regen Wind Richtung Richtung Sonnenschein UV Solar Windben
04.02.2011 00:00 2,9 C 87 % 1023,2 hPa 0,0 mm 3,2 km/h (1 Bft) SW 225 0 min 0 UV-I 0 W/m 9,7 km/h (2 Bft)
04.02.2011 00:10 2,9 C 87 % 1023,2 hPa 0,0 mm 3,2 km/h (1 Bft) SW 225 0 min 0 UV-I 0 W/m 14,5 km/h (3 Bft)
04.02.2011 00:20 2,9 C 87 % 1023,0 hPa 0,0 mm 4,8 km/h (1 Bft) SW 225 0 min 0 UV-I 0 W/m 16,1 km/h (3 Bft)
04.02.2011 00:30 3,0 C 87 % 1022,7 hPa 0,0 mm 3,2 km/h (1 Bft) SW 225 0 min 0 UV-I 0 W/m 14,5 km/h (3 Bft)
04.02.2011 00:40 3,0 C 92 % 1022,5 hPa 0,0 mm 4,8 km/h (1 Bft) S-SW 202 0 min 0 UV-I 0 W/m 16,1 km/h (3 Bft)
04.02.2011 00:50 3,1 C 87 % 1022,4 hPa 0,0 mm 4,8 km/h (1 Bft) S-SW 202 0 min 0 UV-I 0 W/m 12,9 km/h (3 Bft)
04.02.2011 01:00 3,2 C 86 % 1022,2 hPa 0,0 mm 4,8 km/h (1 Bft) S-SW 202 0 min 0 UV-I 0 W/m 16,1 km/h (3 Bft)
04.02.2011 01:10 3,2 C 86 % 1021,9 hPa 0,0 mm 4,8 km/h (1 Bft) S-SW 202 0 min 0 UV-I 0 W/m 17,7 km/h (3 Bft)
04.02.2011 01:20 3,3 C 86 % 1021,7 hPa 0,0 mm 4,8 km/h (1 Bft) SW 225 0 min 0 UV-I 0 W/m 17,7 km/h (3 Bft)
04.02.2011 01:30 3,3 C 86 % 1021,5 hPa 0,0 mm 4,8 km/h (1 Bft) S-SW 202 0 min 0 UV-I 0 W/m 19,3 km/h (3 Bft)
04.02.2011 01:40 3,3 C 85 % 1021,6 hPa 0,0 mm 4,8 km/h (1 Bft) SW 225 0 min 0 UV-I 0 W/m 11,3 km/h (2 Bft)
04.02.2011 01:50 3,3 C 85 % 1021,4 hPa 0,0 mm 4,8 km/h (1 Bft) SW 225 0 min 0 UV-I 0 W/m 14,5 km/h (3 Bft)
04.02.2011 02:00 3,3 C 85 % 1021,4 hPa 0,0 mm 3,2 km/h (1 Bft) S-SW 202 0 min 0 UV-I 0 W/m 14,5 km/h (3 Bft)
04.02.2011 02:10 3,3 C 85 % 1021,2 hPa 0,0 mm 6,4 km/h (2 Bft) SW 225 0 min 0 UV-I 0 W/m 17,7 km/h (3 Bft)
04.02.2011 02:20 3,4 C 85 % 1020,9 hPa 0,0 mm 4,8 km/h (1 Bft) SW 225 0 min 0 UV-I 0 W/m 16,1 km/h (3 Bft)
04.02.2011 02:30 3,5 C 85 % 1020,7 hPa 0,0 mm 6,4 km/h (2 Bft) SW 225 0 min 0 UV-I 0 W/m 20,9 km/h (4 Bft)
04.02.2011 02:40 3,6 C 85 % 1020,6 hPa 0,0 mm 6,4 km/h (2 Bft) SW 225 0 min 0 UV-I 0 W/m 19,3 km/h (3 Bft)
04.02.2011 02:50 3,8 C 85 % 1020,7 hPa 0,0 mm 6,4 km/h (2 Bft) SW 225 0 min 0 UV-I 0 W/m 17,7 km/h (3 Bft)
04.02.2011 03:00 3,9 C 84 % 1020,5 hPa 0,0 mm 6,4 km/h (2 Bft) SW 225 0 min 0 UV-I 0 W/m 17,7 km/h (3 Bft)
04.02.2011 03:10 3,9 C 84 % 1020,4 hPa 0,0 mm 6,4 km/h (2 Bft) SW 225 0 min 0 UV-I 0 W/m 20,9 km/h (4 Bft)
04.02.2011 03:20 3,9 C 83 % 1020,4 hPa 0,0 mm 4,8 km/h (1 Bft) SW 225 0 min 0 UV-I 0 W/m 17,7 km/h (3 Bft)
04.02.2011 03:30 4,0 C 83 % 1020,4 hPa 0,0 mm 6,4 km/h (2 Bft) SW 225 0 min 0 UV-I 0 W/m 19,3 km/h (3 Bft)
04.02.2011 03:40 4,1 C 83 % 1019,8 hPa 0,0 mm 9,7 km/h (2 Bft) SW 225 0 min 0 UV-I 0 W/m 25,7 km/h (4 Bft)
04.02.2011 03:50 4,2 C 82 % 1019,6 hPa 0,0 mm 8,0 km/h (2 Bft) SW 225 0 min 0 UV-I 0 W/m 22,5 km/h (4 Bft)
04.02.2011 04:00 4,3 C 82 % 1019,4 hPa 0,0 mm 8,0 km/h (2 Bft) S-SW 202 0 min 0 UV-I 0 W/m 27,4 km/h (4 Bft)
04.02.2011 04:10 4,4 C 82 % 1019,1 hPa 0,0 mm 6,4 km/h (2 Bft) S-SW 202 0 min 0 UV-I 0 W/m 24,1 km/h (4 Bft)
04.02.2011 04:20 4,4 C 82 % 1018,8 hPa 0,0 mm 6,4 km/h (2 Bft) SW 225 0 min 0 UV-I 0 W/m 19,3 km/h (3 Bft)
04.02.2011 04:30 4,4 C 82 % 1018,6 hPa 0,0 mm 6,4 km/h (2 Bft) SW 225 0 min 0 UV-I 0 W/m 19,3 km/h (3 Bft)
04.02.2011 04:40 4,5 C 82 % 1018,5 hPa 0,0 mm 8,0 km/h (2 Bft) SW 225 0 min 0 UV-I 0 W/m 20,9 km/h (4 Bft)
04.02.2011 04:50 4,7 C 82 % 1018,3 hPa 0,0 mm 6,4 km/h (2 Bft) SW 225 0 min 0 UV-I 0 W/m 22,5 km/h (4 Bft)
04.02.2011 05:00 4,8 C 81 % 1018,3 hPa 0,0 mm 8,0 km/h (2 Bft) S-SW 202 0 min 0 UV-I 0 W/m 27,4 km/h (4 Bft)
04.02.2011 05:10 4,8 C 81 % 1018,3 hPa 0,0 mm 6,4 km/h (2 Bft) SW 225 0 min 0 UV-I 0 W/m 19,3 km/h (3 Bft)
04.02.2011 05:20 4,8 C 81 % 1018,3 hPa 0,0 mm 6,4 km/h (2 Bft) S-SW 202 0 min 0 UV-I 0 W/m 24,1 km/h (4 Bft)
04.02.2011 05:30 4,8 C 81 % 1017,8 hPa 0,0 mm 8,0 km/h (2 Bft) S-SW 202 0 min 0 UV-I 0 W/m 19,3 km/h (3 Bft)
04.02.2011 05:40 4,9 C 81 % 1017,7 hPa 0,0 mm 8,0 km/h (2 Bft) S-SW 202 0 min 0 UV-I 0 W/m 24,1 km/h (4 Bft)
04.02.2011 05:50 5,1 C 81 % 1017,7 hPa 0,0 mm 9,7 km/h (2 Bft) SW 225 0 min 0 UV-I 0 W/m 25,7 km/h (4 Bft)
04.02.2011 06:00 5,2 C 81 % 1017,5 hPa 0,0 mm 8,0 km/h (2 Bft) W-SW 247 0 min 0 UV-I 0 W/m 19,3 km/h (3 Bft)
04.02.2011 06:10 5,3 C 81 % 1017,6 hPa 0,0 mm 9,7 km/h (2 Bft) S-SW 202 0 min 0 UV-I 0 W/m 24,1 km/h (4 Bft)
04.02.2011 06:20 5,6 C 81 % 1017,6 hPa 0,0 mm 11,3 km/h (2 Bft) W-SW 247 0 min 0 UV-I 0 W/m 33,8 km/h (5 Bft)
04.02.2011 06:30 5,8 C 80 % 1017,6 hPa 0,0 mm 11,3 km/h (2 Bft) W-SW 247 0 min 0 UV-I 0 W/m 27,4 km/h (4 Bft)
04.02.2011 06:40 5,9 C 80 % 1017,4 hPa 0,0 mm 9,7 km/h (2 Bft) W-SW 247 0 min 0 UV-I 0 W/m 27,4 km/h (4 Bft)
04.02.2011 06:50 5,9 C 80 % 1017,5 hPa 0,3 mm 12,9 km/h (3 Bft) W-SW 247 0 min 0 UV-I 0 W/m 30,6 km/h (5 Bft)
04.02.2011 07:00 5,9 C 80 % 1017,3 hPa 0,0 mm 9,7 km/h (2 Bft) W-SW 247 0 min 0 UV-I 0 W/m 30,6 km/h (5 Bft)
04.02.2011 07:10 5,9 C 81 % 1017,3 hPa 0,0 mm 12,9 km/h (3 Bft) SW 225 0 min 0 UV-I 0 W/m 33,8 km/h (5 Bft)
04.02.2011 07:20 5,9 C 81 % 1017,0 hPa 0,0 mm 12,9 km/h (3 Bft) SW 225 0 min 0 UV-I 0 W/m 30,6 km/h (5 Bft)
04.02.2011 07:30 5,9 C 81 % 1017,1 hPa 0,0 mm 11,3 km/h (2 Bft) SW 225 0 min 0 UV-I 0 W/m 32,2 km/h (5 Bft)
04.02.2011 07:40 5,9 C 81 % 1017,1 hPa 0,0 mm 12,9 km/h (3 Bft) SW 225 0 min 0 UV-I 0 W/m 43,5 km/h (6 Bft)
04.02.2011 07:50 5,9 C 81 % 1017,1 hPa 0,0 mm 11,3 km/h (2 Bft) W-SW 247 0 min 0 UV-I 0 W/m 29,0 km/h (5 Bft)
04.02.2011 08:00 5,9 C 81 % 1017,3 hPa 0,0 mm 10,3 km/h (2 Bft) SW 228 0 min 0 UV-I 0 W/m 25,7 km/h (4 Bft)
04.02.2011 08:10 6,0 C 81 % 1017,2 hPa 0,0 mm 11,3 km/h (2 Bft) W-SW 247 0 min 0 UV-I 0 W/m 35,4 km/h (5 Bft)
04.02.2011 08:20 6,1 C 81 % 1017,4 hPa 0,0 mm 12,9 km/h (3 Bft) W-SW 247 0 min 0 UV-I 0 W/m 33,8 km/h (5 Bft)
04.02.2011 08:30 6,1 C 81 % 1017,5 hPa 0,0 mm 14,5 km/h (3 Bft) W 270 0 min 0 UV-I 0 W/m 30,6 km/h (5 Bft)
04.02.2011 08:40 6,2 C 81 % 1017,5 hPa 0,0 mm 12,9 km/h (3 Bft) W-SW 247 0 min 0 UV-I 0 W/m 29,0 km/h (5 Bft)
04.02.2011 08:50 6,1 C 82 % 1017,7 hPa 0,0 mm 11,3 km/h (2 Bft) W-SW 247 0 min 0 UV-I 0 W/m 27,4 km/h (4 Bft)
04.02.2011 09:00 6,1 C 82 % 1018,0 hPa 0,0 mm 8,0 km/h (2 Bft) W-SW 247 0 min 0 UV-I 5 W/m 27,4 km/h (4 Bft)
04.02.2011 09:10 6,0 C 83 % 1018,2 hPa 0,3 mm 8,0 km/h (2 Bft) W 270 0 min 0 UV-I 7 W/m 20,9 km/h (4 Bft)
04.02.2011 09:20 6,0 C 84 % 1018,2 hPa 0,0 mm 8,0 km/h (2 Bft) W-SW 247 0 min 0 UV-I 9 W/m 22,5 km/h (4 Bft)
04.02.2011 09:30 6,0 C 85 % 1017,9 hPa 0,0 mm 9,7 km/h (2 Bft) W-SW 247 0 min 0 UV-I 14 W/m 29,0 km/h (5 Bft)
04.02.2011 09:40 6,0 C 85 % 1017,6 hPa 0,0 mm 11,3 km/h (2 Bft) W-SW 247 0 min 0 UV-I 28 W/m 33,8 km/h (5 Bft)
04.02.2011 09:50 6,1 C 85 % 1017,6 hPa 0,0 mm 9,7 km/h (2 Bft) W-SW 247 0 min 0 UV-I 32 W/m 30,6 km/h (5 Bft)
04.02.2011 10:00 6,2 C 86 % 1017,4 hPa 0,3 mm 11,3 km/h (2 Bft) W-SW 247 0 min 0 UV-I 58 W/m 25,7 km/h (4 Bft)
04.02.2011 10:10 6,3 C 86 % 1017,4 hPa 0,0 mm 11,3 km/h (2 Bft) W-SW 247 0 min 0 UV-I 49 W/m 22,5 km/h (4 Bft)
04.02.2011 10:20 6,4 C 86 % 1017,3 hPa 0,0 mm 9,7 km/h (2 Bft) W-SW 247 0 min 0 UV-I 40 W/m 27,4 km/h (4 Bft)
04.02.2011 10:30 6,6 C 86 % 1017,7 hPa 0,0 mm 9,7 km/h (2 Bft) SW 225 0 min 0 UV-I 39 W/m 32,2 km/h (5 Bft)
04.02.2011 10:40 6,7 C 85 % 1017,7 hPa 0,0 mm 11,3 km/h (2 Bft) W-SW 247 0 min 0 UV-I 49 W/m 33,8 km/h (5 Bft)
04.02.2011 10:50 6,8 C 85 % 1017,5 hPa 0,0 mm 12,9 km/h (3 Bft) W-SW 247 0 min 0 UV-I 33 W/m 32,2 km/h (5 Bft)
04.02.2011 11:00 6,9 C 84 % 1017,7 hPa 0,0 mm 11,3 km/h (2 Bft) SW 225 0 min 0 UV-I 33 W/m 33,8 km/h (5 Bft)
04.02.2011 11:10 6,9 C 84 % 1017,5 hPa 0,0 mm 11,3 km/h (2 Bft) W-SW 247 0 min 0 UV-I 42 W/m 33,8 km/h (5 Bft)
04.02.2011 11:20 7,0 C 84 % 1017,8 hPa 0,0 mm 9,7 km/h (2 Bft) SW 225 0 min 0 UV-I 33 W/m 24,1 km/h (4 Bft)
04.02.2011 11:30 7,0 C 83 % 1017,8 hPa 0,0 mm 9,7 km/h (2 Bft) W-SW 247 0 min 0 UV-I 33 W/m 25,7 km/h (4 Bft)
04.02.2011 11:40 7,0 C 83 % 1017,8 hPa 0,0 mm 11,3 km/h (2 Bft) SW 225 0 min 0 UV-I 32 W/m 32,2 km/h (5 Bft)
04.02.2011 11:50 7,0 C 84 % 1017,9 hPa 0,0 mm 9,7 km/h (2 Bft) S-SW 202 0 min 0 UV-I 32 W/m 25,7 km/h (4 Bft)
04.02.2011 12:00 7,0 C 84 % 1017,8 hPa 0,0 mm 11,3 km/h (2 Bft) SW 225 0 min 0 UV-I 37 W/m 27,4 km/h (4 Bft)
04.02.2011 12:10 6,9 C 84 % 1017,6 hPa 0,0 mm 8,0 km/h (2 Bft) S-SW 202 0 min 0 UV-I 46 W/m 24,1 km/h (4 Bft)
04.02.2011 12:20 6,9 C 85 % 1017,4 hPa 0,0 mm 9,7 km/h (2 Bft) S-SW 202 0 min 0 UV-I 44 W/m 30,6 km/h (5 Bft)
04.02.2011 12:30 6,9 C 85 % 1017,4 hPa 0,0 mm 11,3 km/h (2 Bft) SW 225 0 min 0 UV-I 47 W/m 27,4 km/h (4 Bft)
04.02.2011 12:40 6,9 C 86 % 1017,4 hPa 0,0 mm 11,3 km/h (2 Bft) W-SW 247 0 min 0 UV-I 44 W/m 32,2 km/h (5 Bft)
04.02.2011 12:50 7,0 C 86 % 1017,2 hPa 0,0 mm 11,3 km/h (2 Bft) W-SW 247 0 min 0 UV-I 49 W/m 30,6 km/h (5 Bft)
04.02.2011 13:00 7,0 C 86 % 1017,3 hPa 0,0 mm 11,3 km/h (2 Bft) W-SW 247 0 min 0 UV-I 51 W/m 25,7 km/h (4 Bft)
04.02.2011 13:10 7,1 C 86 % 1017,2 hPa 0,0 mm 12,9 km/h (3 Bft) SW 225 0 min 0 UV-I 40 W/m 30,6 km/h (5 Bft)
04.02.2011 13:20 7,1 C 87 % 1017,1 hPa 0,0 mm 9,7 km/h (2 Bft) SW 225 0 min 0 UV-I 35 W/m 29,0 km/h (5 Bft)
04.02.2011 13:30 7,0 C 87 % 1016,9 hPa 0,0 mm 9,7 km/h (2 Bft) SW 225 0 min 0 UV-I 30 W/m 29,0 km/h (5 Bft)
04.02.2011 13:40 6,9 C 87 % 1016,9 hPa 0,0 mm 9,7 km/h (2 Bft) SW 225 0 min 0 UV-I 28 W/m 29,0 km/h (5 Bft)
04.02.2011 13:50 6,9 C 88 % 1016,7 hPa 0,0 mm 8,0 km/h (2 Bft) W-SW 247 0 min 0 UV-I 30 W/m 25,7 km/h (4 Bft)
04.02.2011 14:00 7,0 C 88 % 1016,6 hPa 0,0 mm 9,7 km/h (2 Bft) S-SW 202 0 min 0 UV-I 54 W/m 25,7 km/h (4 Bft)
04.02.2011 14:10 7,0 C 88 % 1016,3 hPa 0,0 mm 8,0 km/h (2 Bft) S-SW 202 0 min 0 UV-I 60 W/m 24,1 km/h (4 Bft)
04.02.2011 14:20 7,0 C 88 % 1016,4 hPa 0,0 mm 9,7 km/h (2 Bft) W-SW 247 0 min 0 UV-I 30 W/m 24,1 km/h (4 Bft)
04.02.2011 14:30 7,0 C 89 % 1016,3 hPa 0,0 mm 8,0 km/h (2 Bft) W-SW 247 0 min 0 UV-I 35 W/m 20,9 km/h (4 Bft)
04.02.2011 14:40 7,0 C 89 % 1016,5 hPa 0,0 mm 8,0 km/h (2 Bft) SW 225 0 min 0 UV-I 23 W/m 22,5 km/h (4 Bft)
04.02.2011 14:50 7,0 C 89 % 1016,3 hPa 0,0 mm 8,0 km/h (2 Bft) W-SW 247 0 min 0 UV-I 14 W/m 19,3 km/h (3 Bft)
04.02.2011 15:00 7,0 C 89 % 1016,2 hPa 0,0 mm 8,0 km/h (2 Bft) SW 225 0 min 0 UV-I 14 W/m 20,9 km/h (4 Bft)
04.02.2011 15:10 7,1 C 89 % 1016,3 hPa 0,0 mm 9,7 km/h (2 Bft) W-SW 247 0 min 0 UV-I 18 W/m 24,1 km/h (4 Bft)
04.02.2011 15:20 7,3 C 89 % 1016,2 hPa 0,0 mm 11,3 km/h (2 Bft) W-SW 247 0 min 0 UV-I 18 W/m 30,6 km/h (5 Bft)
04.02.2011 15:30 7,6 C 88 % 1015,9 hPa 0,0 mm 11,3 km/h (2 Bft) W-SW 247 0 min 0 UV-I 19 W/m 25,7 km/h (4 Bft)
04.02.2011 15:40 7,7 C 88 % 1015,8 hPa 0,0 mm 11,3 km/h (2 Bft) W-SW 247 0 min 0 UV-I 14 W/m 38,6 km/h (5 Bft)
04.02.2011 15:50 7,9 C 87 % 1015,9 hPa 0,0 mm 12,9 km/h (3 Bft) W-SW 247 0 min 0 UV-I 19 W/m 37,0 km/h (5 Bft)
04.02.2011 16:00 8,2 C 86 % 1016,0 hPa 0,0 mm 12,5 km/h (3 Bft) W-NW 292 0 min 0 UV-I 16 W/m 33,8 km/h (5 Bft)
04.02.2011 16:10 8,3 C 86 % 1015,9 hPa 0,0 mm 14,5 km/h (3 Bft) W-SW 247 0 min 0 UV-I 14 W/m 33,8 km/h (5 Bft)
04.02.2011 16:20 8,3 C 86 % 1015,8 hPa 0,0 mm 16,1 km/h (3 Bft) W-SW 247 0 min 0 UV-I 12 W/m 35,4 km/h (5 Bft)
04.02.2011 16:30 8,3 C 86 % 1015,8 hPa 0,0 mm 16,1 km/h (3 Bft) W-SW 247 0 min 0 UV-I 7 W/m 38,6 km/h (5 Bft)
04.02.2011 16:40 8,3 C 86 % 1016,1 hPa 0,0 mm 14,5 km/h (3 Bft) W-SW 247 0 min 0 UV-I 5 W/m 41,8 km/h (6 Bft)
04.02.2011 16:50 8,3 C 86 % 1016,1 hPa 0,0 mm 16,1 km/h (3 Bft) W-SW 247 0 min 0 UV-I 0 W/m 33,8 km/h (5 Bft)
04.02.2011 17:00 8,3 C 86 % 1016,0 hPa 0,0 mm 17,7 km/h (3 Bft) W-SW 247 0 min 0 UV-I 0 W/m 37,0 km/h (5 Bft)
04.02.2011 17:10 8,3 C 86 % 1015,8 hPa 0,0 mm 14,5 km/h (3 Bft) W-SW 247 0 min 0 UV-I 0 W/m 35,4 km/h (5 Bft)
04.02.2011 17:20 8,3 C 86 % 1015,5 hPa 0,0 mm 14,5 km/h (3 Bft) W-SW 247 0 min 0 UV-I 0 W/m 33,8 km/h (5 Bft)
04.02.2011 17:30 8,4 C 85 % 1015,5 hPa 0,0 mm 14,5 km/h (3 Bft) W-SW 247 0 min 0 UV-I 0 W/m 40,2 km/h (6 Bft)
04.02.2011 17:40 8,4 C 85 % 1015,6 hPa 0,0 mm 14,5 km/h (3 Bft) W-SW 247 0 min 0 UV-I 0 W/m 38,6 km/h (5 Bft)
04.02.2011 17:50 8,6 C 84 % 1015,7 hPa 0,0 mm 16,1 km/h (3 Bft) W-SW 247 0 min 0 UV-I 0 W/m 40,2 km/h (6 Bft)
04.02.2011 18:00 8,7 C 84 % 1015,9 hPa 0,0 mm 14,5 km/h (3 Bft) W-SW 247 0 min 0 UV-I 0 W/m 40,2 km/h (6 Bft)
04.02.2011 18:10 8,9 C 83 % 1015,7 hPa 0,0 mm 17,7 km/h (3 Bft) W-SW 247 0 min 0 UV-I 0 W/m 35,4 km/h (5 Bft)
04.02.2011 18:20 9,0 C 83 % 1015,5 hPa 0,0 mm 16,1 km/h (3 Bft) SW 225 0 min 0 UV-I 0 W/m 46,7 km/h (6 Bft)
04.02.2011 18:30 9,0 C 83 % 1015,6 hPa 0,0 mm 17,7 km/h (3 Bft) W-SW 247 0 min 0 UV-I 0 W/m 35,4 km/h (5 Bft)
04.02.2011 18:40 9,1 C 83 % 1015,6 hPa 0,0 mm 14,5 km/h (3 Bft) W 270 0 min 0 UV-I 0 W/m 35,4 km/h (5 Bft)
04.02.2011 18:50 9,1 C 82 % 1015,9 hPa 0,0 mm 14,5 km/h (3 Bft) W-SW 247 0 min 0 UV-I 0 W/m 32,2 km/h (5 Bft)
04.02.2011 19:00 9,1 C 82 % 1016,0 hPa 0,0 mm 14,5 km/h (3 Bft) W-SW 247 0 min 0 UV-I 0 W/m 29,0 km/h (5 Bft)
04.02.2011 19:10 9,1 C 82 % 1016,1 hPa 0,0 mm 12,9 km/h (3 Bft) W 270 0 min 0 UV-I 0 W/m 33,8 km/h (5 Bft)
04.02.2011 19:20 9,2 C 82 % 1015,8 hPa 0,0 mm 16,1 km/h (3 Bft) W-SW 247 0 min 0 UV-I 0 W/m 38,6 km/h (5 Bft)
04.02.2011 19:30 9,2 C 81 % 1015,6 hPa 0,0 mm 14,5 km/h (3 Bft) W-SW 247 0 min 0 UV-I 0 W/m 40,2 km/h (6 Bft)
04.02.2011 19:40 9,3 C 80 % 1016,1 hPa 0,0 mm 16,1 km/h (3 Bft) W-SW 247 0 min 0 UV-I 0 W/m 32,2 km/h (5 Bft)
04.02.2011 19:50 9,4 C 80 % 1016,1 hPa 0,0 mm 14,5 km/h (3 Bft) W-SW 247 0 min 0 UV-I 0 W/m 30,6 km/h (5 Bft)
04.02.2011 20:00 9,4 C 80 % 1016,3 hPa 0,0 mm 16,1 km/h (3 Bft) W-SW 247 0 min 0 UV-I 0 W/m 35,4 km/h (5 Bft)
04.02.2011 20:10 9,5 C 80 % 1016,2 hPa 0,0 mm 14,5 km/h (3 Bft) W-SW 247 0 min 0 UV-I 0 W/m 33,8 km/h (5 Bft)
04.02.2011 20:20 9,5 C 79 % 1016,1 hPa 0,0 mm 12,9 km/h (3 Bft) W-SW 247 0 min 0 UV-I 0 W/m 37,0 km/h (5 Bft)
04.02.2011 20:30 9,5 C 79 % 1015,8 hPa 0,0 mm 16,1 km/h (3 Bft) W-SW 247 0 min 0 UV-I 0 W/m 40,2 km/h (6 Bft)
04.02.2011 20:40 9,5 C 79 % 1015,4 hPa 0,0 mm 14,5 km/h (3 Bft) W-SW 247 0 min 0 UV-I 0 W/m 35,4 km/h (5 Bft)
04.02.2011 20:50 9,6 C 78 % 1015,6 hPa 0,0 mm 16,1 km/h (3 Bft) W-SW 247 0 min 0 UV-I 0 W/m 49,9 km/h (6 Bft)
04.02.2011 21:00 9,6 C 78 % 1015,5 hPa 0,0 mm 16,1 km/h (3 Bft) W-SW 247 0 min 0 UV-I 0 W/m 37,0 km/h (5 Bft)
04.02.2011 21:10 9,6 C 78 % 1015,5 hPa 0,0 mm 17,7 km/h (3 Bft) W-SW 247 0 min 0 UV-I 0 W/m 38,6 km/h (5 Bft)
04.02.2011 21:20 9,7 C 77 % 1015,4 hPa 0,0 mm 14,5 km/h (3 Bft) W-SW 247 0 min 0 UV-I 0 W/m 37,0 km/h (5 Bft)
04.02.2011 21:30 9,7 C 77 % 1015,5 hPa 0,0 mm 14,5 km/h (3 Bft) W-SW 247 0 min 0 UV-I 0 W/m 37,0 km/h (5 Bft)
04.02.2011 21:40 9,7 C 77 % 1015,5 hPa 0,0 mm 14,5 km/h (3 Bft) W-SW 247 0 min 0 UV-I 0 W/m 35,4 km/h (5 Bft)
04.02.2011 21:50 9,7 C 77 % 1015,6 hPa 0,0 mm 17,7 km/h (3 Bft) W-SW 247 0 min 0 UV-I 0 W/m 41,8 km/h (6 Bft)
04.02.2011 22:00 9,8 C 76 % 1015,6 hPa 0,0 mm 16,1 km/h (3 Bft) W 270 0 min 0 UV-I 0 W/m 41,8 km/h (6 Bft)
04.02.2011 22:10 9,8 C 76 % 1015,2 hPa 0,0 mm 16,1 km/h (3 Bft) SW 225 0 min 0 UV-I 0 W/m 35,4 km/h (5 Bft)
04.02.2011 22:20 9,8 C 76 % 1015,4 hPa 0,0 mm 16,1 km/h (3 Bft) SW 225 0 min 0 UV-I 0 W/m 41,8 km/h (6 Bft)
04.02.2011 22:30 9,8 C 76 % 1015,4 hPa 0,0 mm 19,3 km/h (3 Bft) W-SW 247 0 min 0 UV-I 0 W/m 45,1 km/h (6 Bft)
04.02.2011 22:40 9,9 C 75 % 1015,7 hPa 0,0 mm 17,7 km/h (3 Bft) W-SW 247 0 min 0 UV-I 0 W/m 37,0 km/h (5 Bft)
04.02.2011 22:50 9,9 C 76 % 1015,8 hPa 0,0 mm 12,9 km/h (3 Bft) W-SW 247 0 min 0 UV-I 0 W/m 33,8 km/h (5 Bft)
04.02.2011 23:00 9,9 C 76 % 1015,5 hPa 0,0 mm 17,7 km/h (3 Bft) W-SW 247 0 min 0 UV-I 0 W/m 40,2 km/h (6 Bft)
04.02.2011 23:10 9,9 C 75 % 1015,5 hPa 0,0 mm 14,5 km/h (3 Bft) W-SW 247 0 min 0 UV-I 0 W/m 30,6 km/h (5 Bft)
04.02.2011 23:20 9,9 C 76 % 1015,5 hPa 0,0 mm 14,5 km/h (3 Bft) SW 225 0 min 0 UV-I 0 W/m 30,6 km/h (5 Bft)
04.02.2011 23:30 9,9 C 76 % 1015,7 hPa 0,0 mm 16,1 km/h (3 Bft) W-SW 247 0 min 0 UV-I 0 W/m 37,0 km/h (5 Bft)
04.02.2011 23:40 9,9 C 75 % 1015,6 hPa 0,0 mm 16,1 km/h (3 Bft) W-SW 247 0 min 0 UV-I 0 W/m 37,0 km/h (5 Bft)
04.02.2011 23:50 9,9 C 75 % 1015,5 hPa 0,0 mm 19,3 km/h (3 Bft) W-SW 247 0 min 0 UV-I 0 W/m 38,6 km/h (5 Bft)
_ Min-Zeit 00:10 22:40 22:10 - 00:00 - - - - - 00:00
Minimum _ 2,9 C 75 % 1015,2 hPa - 3,2 km/h (1 Bft) - - - - - 9,7 km/h (2 Bft)
_ Max-Zeit 22:30 00:40 00:00 06:50 22:30 - - 00:00 00:00 14:10 20:50
Maximum _ 9,9 C 92 % 1023,2 hPa 0,3 mm 19,3 km/h
W-SW (3 Bft)
- - 0 min 0 UV-I 60 W/m 49,9 km/h
W-SW (6 Bft)
Durchschnitt _ 6,8 C 83 % 1017,5 hPa #0,8 mm 11,1 km/h (2 Bft) W-SW - #0 min. 0 UV-I 30 W/m 29,0 km/h (5 Bft)